Check out our new BloomSky Weather System.

Active alerts


No alerts


Thunder radar  blitzortung!


Rain radar more information rain snow radar


Visit our other weather sites:

Template documentation
and downloads

And another site



Weather Underground History page Text

Daily Summary for April 16, 2017 Units:  Metric    English   Both
« Previous Day
Next Day »
Daily Weekly Monthly Yearly Custom
  High: Low: Average:
Temperature: -17.8 °C 20.5 °C 24.2 °C
Dew Point: -17.8 °C 19.7 °C 20.7 °C
Humidity: Humidity % 63 % 82 %
Wind Speed: 0 km/h 0 km/h 5.5 km/h
Wind Gust: 0 km/h - -
Wind:- - SE
Pressure: 0 hPa 1014.8 hPa -
Precipitation: 0 mm    
Historical Graphs
 
 
Tabular Data for April 16, 2017
Time Temperature Dew Point Pressure Wind Wind Speed Wind Gust Humidity Rainfall Rate (Hourly)
-17.8 °C -17.8 °C 0 hPa Calm     Humidity % 0 mm
00:01 22.1 °C 20.4 °C 1017.5 hPa ESE 1.6 km/h 8 km/h 90 % 0 mm
00:06 22.1 °C 20.4 °C 1017.2 hPa SE 1.6 km/h 6.4 km/h 90 % 0 mm
00:11 22 °C 20.3 °C 1017.5 hPa Calm   4.8 km/h 90 % 0 mm
00:16 21.9 °C 20.4 °C 1017.2 hPa SE 1.6 km/h 6.4 km/h 91 % 0 mm
00:21 21.9 °C 20.4 °C 1017.2 hPa SE 3.2 km/h 6.4 km/h 91 % 0 mm
00:26 21.9 °C 20.4 °C 1017.5 hPa Calm   6.4 km/h 91 % 0 mm
00:31 21.9 °C 20.4 °C 1017.5 hPa SE 3.2 km/h 4.8 km/h 91 % 0 mm
00:36 21.8 °C 20.3 °C 1017.2 hPa Calm   4.8 km/h 91 % 0 mm
00:41 21.7 °C 20.2 °C 1017.2 hPa Calm   4.8 km/h 91 % 0 mm
00:46 21.6 °C 20.2 °C 1017.2 hPa Calm   3.2 km/h 92 % 0 mm
00:51 21.6 °C 20.2 °C 1017.2 hPa Calm   1.6 km/h 92 % 0 mm
00:56 21.6 °C 20.2 °C 1017.2 hPa ESE 1.6 km/h 3.2 km/h 92 % 0 mm
01:01 21.6 °C 20.2 °C 1017.2 hPa Calm   3.2 km/h 92 % 0 mm
01:06 21.6 °C 20.4 °C 1017.2 hPa ESE 3.2 km/h 3.2 km/h 93 % 0 mm
01:11 21.6 °C 20.4 °C 1017.2 hPa SE 1.6 km/h 4.8 km/h 93 % 0 mm
01:16 21.6 °C 20.4 °C 1017.2 hPa ESE 3.2 km/h 4.8 km/h 93 % 0 mm
01:21 21.6 °C 20.4 °C 1017.2 hPa ESE 3.2 km/h 8 km/h 93 % 0 mm
01:26 21.6 °C 20.4 °C 1017.2 hPa ESE 1.6 km/h 8 km/h 93 % 0 mm
01:31 21.6 °C 20.4 °C 1017.2 hPa SE 3.2 km/h 8 km/h 93 % 0 mm
01:36 21.5 °C 20.3 °C 1016.8 hPa SSE 3.2 km/h 8 km/h 93 % 0 mm
01:41 21.5 °C 20.3 °C 1016.8 hPa SE 1.6 km/h 4.8 km/h 93 % 0 mm
01:46 21.4 °C 20.2 °C 1016.8 hPa Calm   6.4 km/h 93 % 0 mm
01:51 21.4 °C 20.2 °C 1016.8 hPa SE 1.6 km/h 6.4 km/h 93 % 0 mm
01:52 21.4 °C 20.2 °C 1016.8 hPa Calm   6.4 km/h 93 % 0 mm
01:57 21.4 °C 20.2 °C 1016.5 hPa Calm   6.4 km/h 93 % 0 mm
02:02 21.3 °C 20.1 °C 1016.5 hPa SE 3.2 km/h 4.8 km/h 93 % 0 mm
02:07 21.3 °C 20.3 °C 1016.5 hPa SE 4.8 km/h 4.8 km/h 94 % 0 mm
02:12 21.3 °C 20.3 °C 1016.5 hPa SE 3.2 km/h 4.8 km/h 94 % 0 mm
02:17 21.3 °C 20.3 °C 1016.5 hPa East 4.8 km/h 4.8 km/h 94 % 0 mm
02:22 21.2 °C 20.2 °C 1016.5 hPa ESE 1.6 km/h 4.8 km/h 94 % 0 mm
02:27 21.2 °C 20.2 °C 1016.5 hPa ESE 4.8 km/h 4.8 km/h 94 % 0 mm
02:32 21.3 °C 20.3 °C 1016.5 hPa ESE 1.6 km/h 6.4 km/h 94 % 0 mm
02:37 21.3 °C 20.3 °C 1016.5 hPa East 4.8 km/h 6.4 km/h 94 % 0 mm
02:42 21.2 °C 20.2 °C 1016.5 hPa ESE 1.6 km/h 6.4 km/h 94 % 0 mm
02:47 21.2 °C 20.2 °C 1016.5 hPa ESE 1.6 km/h 6.4 km/h 94 % 0 mm
02:52 21.2 °C 20.4 °C 1016.5 hPa SE 3.2 km/h 6.4 km/h 95 % 0 mm
02:57 21.2 °C 20.4 °C 1016.1 hPa SSE 4.8 km/h 6.4 km/h 95 % 0 mm
03:02 21.3 °C 20.5 °C 1016.1 hPa SSE 3.2 km/h 6.4 km/h 95 % 0 mm
03:07 21.3 °C 20.5 °C 1016.5 hPa SSE 4.8 km/h 6.4 km/h 95 % 0 mm
03:12 21.3 °C 20.5 °C 1016.1 hPa SE 1.6 km/h 6.4 km/h 95 % 0 mm
03:17 21.3 °C 20.5 °C 1016.1 hPa SE 4.8 km/h 6.4 km/h 95 % 0 mm
03:22 21.3 °C 20.5 °C 1016.1 hPa SSE 1.6 km/h 6.4 km/h 95 % 0 mm
03:27 21.3 °C 20.5 °C 1016.1 hPa SE 1.6 km/h 4.8 km/h 95 % 0 mm
03:32 21.2 °C 20.4 °C 1016.1 hPa Calm   4.8 km/h 95 % 0 mm
03:37 21.2 °C 20.4 °C 1016.1 hPa Calm   4.8 km/h 95 % 0 mm
03:42 21.1 °C 20.3 °C 1016.1 hPa Calm   4.8 km/h 95 % 0 mm
03:47 21.1 °C 20.3 °C 1016.1 hPa Calm   4.8 km/h 95 % 0 mm
03:52 21 °C 20.2 °C 1016.1 hPa Calm   3.2 km/h 95 % 0 mm
03:57 20.9 °C 20.1 °C 1015.8 hPa Calm   3.2 km/h 95 % 0 mm
04:02 20.8 °C 20 °C 1015.8 hPa Calm   1.6 km/h 95 % 0 mm
04:07 20.8 °C 20 °C 1015.8 hPa Calm     95 % 0 mm
04:12 20.8 °C 20.1 °C 1015.8 hPa Calm     96 % 0 mm
04:17 20.8 °C 20.1 °C 1015.8 hPa Calm     96 % 0 mm
04:22 20.7 °C 20 °C 1015.8 hPa Calm     96 % 0 mm
04:27 20.6 °C 19.9 °C 1015.8 hPa Calm     96 % 0 mm
04:32 20.5 °C 19.8 °C 1015.8 hPa Calm     96 % 0 mm
04:37 20.6 °C 19.9 °C 1015.8 hPa SSE 1.6 km/h   96 % 0 mm
04:42 20.7 °C 20 °C 1015.8 hPa Calm   3.2 km/h 96 % 0 mm
04:47 20.8 °C 20.3 °C 1015.8 hPa Calm   3.2 km/h 97 % 0 mm
04:52 20.8 °C 20.1 °C 1015.8 hPa Calm   3.2 km/h 96 % 0 mm
04:57 20.8 °C 20.3 °C 1015.8 hPa Calm   1.6 km/h 97 % 0 mm
05:02 20.8 °C 20.3 °C 1015.8 hPa Calm   3.2 km/h 97 % 0 mm
05:07 20.8 °C 20.3 °C 1015.8 hPa Calm   3.2 km/h 97 % 0 mm
05:12 20.8 °C 20.3 °C 1015.8 hPa SE 1.6 km/h 3.2 km/h 97 % 0 mm
05:17 20.9 °C 20.4 °C 1015.8 hPa Calm   3.2 km/h 97 % 0 mm
05:22 20.9 °C 20.4 °C 1015.8 hPa Calm   3.2 km/h 97 % 0 mm
05:27 20.9 °C 20.4 °C 1015.8 hPa Calm   3.2 km/h 97 % 0 mm
05:32 20.9 °C 20.4 °C 1015.8 hPa Calm   3.2 km/h 97 % 0 mm
05:37 20.9 °C 20.4 °C 1015.8 hPa Calm   3.2 km/h 97 % 0 mm
05:42 20.9 °C 20.4 °C 1015.8 hPa Calm   1.6 km/h 97 % 0 mm
05:47 20.9 °C 20.4 °C 1015.8 hPa Calm   1.6 km/h 97 % 0 mm
05:52 20.9 °C 20.4 °C 1015.8 hPa Calm   1.6 km/h 97 % 0 mm
05:57 20.9 °C 20.4 °C 1015.8 hPa Calm     97 % 0 mm
06:02 21 °C 20.5 °C 1015.8 hPa Calm   1.6 km/h 97 % 0 mm
06:07 21.1 °C 20.6 °C 1015.8 hPa Calm   1.6 km/h 97 % 0 mm
06:12 21.1 °C 20.6 °C 1015.8 hPa Calm   1.6 km/h 97 % 0 mm
06:17 21.2 °C 20.7 °C 1016.1 hPa Calm   3.2 km/h 97 % 0 mm
06:22 21.2 °C 20.7 °C 1016.1 hPa Calm   3.2 km/h 97 % 0 mm
06:27 21.2 °C 20.7 °C 1016.1 hPa Calm   3.2 km/h 97 % 0 mm
06:32 21.2 °C 20.7 °C 1016.1 hPa Calm   1.6 km/h 97 % 0 mm
06:37 21.2 °C 20.7 °C 1016.1 hPa ESE 1.6 km/h 1.6 km/h 97 % 0 mm
06:42 21.2 °C 20.7 °C 1016.1 hPa Calm   1.6 km/h 97 % 0 mm
06:47 21.1 °C 20.6 °C 1016.5 hPa Calm   1.6 km/h 97 % 0 mm
06:52 20.9 °C 20.4 °C 1016.5 hPa Calm   1.6 km/h 97 % 0 mm
06:57 20.8 °C 20.3 °C 1016.5 hPa Calm   1.6 km/h 97 % 0 mm
07:02 20.7 °C 20.2 °C 1016.5 hPa Calm   1.6 km/h 97 % 0 mm
07:07 20.7 °C 20.2 °C 1016.5 hPa Calm   1.6 km/h 97 % 0 mm
07:12 20.6 °C 20.1 °C 1016.5 hPa Calm   1.6 km/h 97 % 0 mm
07:17 20.6 °C 20.1 °C 1016.8 hPa Calm   1.6 km/h 97 % 0 mm
07:22 20.6 °C 20.3 °C 1016.8 hPa Calm   1.6 km/h 98 % 0 mm
07:27 20.6 °C 20.3 °C 1016.8 hPa Calm   1.6 km/h 98 % 0 mm
07:33 20.7 °C 20.4 °C 1016.8 hPa Calm   1.6 km/h 98 % 0 mm
07:38 20.8 °C 20.5 °C 1016.8 hPa Calm     98 % 0 mm
07:43 20.9 °C 20.6 °C 1016.8 hPa Calm   1.6 km/h 98 % 0 mm
07:48 21.1 °C 20.8 °C 1016.8 hPa Calm   3.2 km/h 98 % 0 mm
07:53 21.3 °C 21 °C 1017.2 hPa Calm   3.2 km/h 98 % 0 mm
07:58 21.5 °C 21.2 °C 1016.8 hPa Calm   3.2 km/h 98 % 0 mm
08:03 21.6 °C 21.3 °C 1016.8 hPa Calm   4.8 km/h 98 % 0 mm
08:08 21.8 °C 21.5 °C 1016.8 hPa East 1.6 km/h 4.8 km/h 98 % 0 mm
08:13 22 °C 21.7 °C 1017.2 hPa Calm   4.8 km/h 98 % 0 mm
08:18 22.1 °C 21.8 °C 1017.2 hPa SE 1.6 km/h 6.4 km/h 98 % 0 mm
08:23 22.3 °C 21.8 °C 1017.2 hPa Calm   6.4 km/h 97 % 0 mm
08:28 22.5 °C 22 °C 1017.2 hPa ENE 4.8 km/h 6.4 km/h 97 % 0 mm
08:33 22.6 °C 22.1 °C 1017.2 hPa SE 3.2 km/h 8 km/h 97 % 0 mm
08:38 22.7 °C 22.2 °C 1017.2 hPa East 8 km/h 9.7 km/h 97 % 0 mm
08:43 22.9 °C 22.2 °C 1017.5 hPa SSE 4.8 km/h 9.7 km/h 96 % 0 mm
08:48 22.9 °C 22.2 °C 1017.2 hPa SSE 3.2 km/h 9.7 km/h 96 % 0 mm
08:53 23.1 °C 22.3 °C 1017.2 hPa SSW 4.8 km/h 8 km/h 95 % 0 mm
08:58 23.2 °C 22.4 °C 1017.5 hPa SSE 6.4 km/h 9.7 km/h 95 % 0 mm
09:03 23.2 °C 22.2 °C 1017.5 hPa SE 6.4 km/h 12.9 km/h 94 % 0 mm
09:08 23.3 °C 22.3 °C 1017.5 hPa SE 6.4 km/h 12.9 km/h 94 % 0 mm
09:13 23.4 °C 22.2 °C 1017.5 hPa South 8 km/h 12.9 km/h 93 % 0 mm
09:18 23.8 °C 22.6 °C 1017.5 hPa SE 12.9 km/h 14.5 km/h 93 % 0 mm
09:23 24.1 °C 22.5 °C 1017.8 hPa SSE 4.8 km/h 16.1 km/h 91 % 0 mm
09:28 24.2 °C 22.5 °C 1017.8 hPa South 3.2 km/h 16.1 km/h 90 % 0 mm
09:33 24.5 °C 22.4 °C 1017.8 hPa ESE 6.4 km/h 16.1 km/h 88 % 0 mm
09:38 24.9 °C 22.6 °C 1017.8 hPa South 6.4 km/h 14.5 km/h 87 % 0 mm
09:43 25.1 °C 22.4 °C 1017.8 hPa East 8 km/h 14.5 km/h 85 % 0 mm
09:48 25 °C 22.3 °C 1017.8 hPa South 6.4 km/h 16.1 km/h 85 % 0 mm
09:53 24.9 °C 22.2 °C 1017.8 hPa SE 6.4 km/h 16.1 km/h 85 % 0 mm
09:58 25.2 °C 22.5 °C 1017.8 hPa SE 6.4 km/h 16.1 km/h 85 % 0 mm
10:03 25.4 °C 22.5 °C 1017.8 hPa SSE 8 km/h 16.1 km/h 84 % 0 mm
10:08 25.7 °C 22.2 °C 1017.8 hPa ESE 9.7 km/h 17.7 km/h 81 % 0 mm
10:13 25.6 °C 21.9 °C 1017.8 hPa SE 8 km/h 17.7 km/h 80 % 0 mm
10:18 25.6 °C 22.3 °C 1017.8 hPa ESE 6.4 km/h 17.7 km/h 82 % 0 mm
10:21 25.8 °C 22.5 °C 1017.8 hPa SE 4.8 km/h 17.7 km/h 82 % 0 mm
10:26 26.1 °C 22 °C 1017.8 hPa South 9.7 km/h 20.9 km/h 78 % 0 mm
10:31 26.3 °C 22.4 °C 1017.8 hPa South 11.3 km/h 20.9 km/h 79 % 0 mm
10:36 26.3 °C 22.4 °C 1017.8 hPa SE 6.4 km/h 20.9 km/h 79 % 0 mm
10:41 26.3 °C 22.2 °C 1017.8 hPa ESE 3.2 km/h 17.7 km/h 78 % 0 mm
10:46 26.4 °C 22.7 °C 1017.8 hPa SE 4.8 km/h 14.5 km/h 80 % 0 mm
10:51 26.7 °C 22.5 °C 1017.8 hPa ESE 12.9 km/h 14.5 km/h 78 % 0 mm
10:56 26.8 °C 22.2 °C 1017.8 hPa SE 11.3 km/h 14.5 km/h 76 % 0 mm
11:01 26.9 °C 21.6 °C 1017.8 hPa SE 14.5 km/h 16.1 km/h 73 % 0 mm
11:06 26.9 °C 21.6 °C 1017.8 hPa SE 14.5 km/h 16.1 km/h 73 % 0 mm
11:11 27 °C 22 °C 1017.8 hPa SSE 11.3 km/h 20.9 km/h 74 % 0 mm
11:16 26.9 °C 21.9 °C 1017.8 hPa SSW 3.2 km/h 20.9 km/h 74 % 0 mm
11:21 26.8 °C 21.8 °C 1017.8 hPa South 4.8 km/h 20.9 km/h 74 % 0 mm
11:26 26.8 °C 22.2 °C 1017.8 hPa SSE 6.4 km/h 17.7 km/h 76 % 0 mm
11:31 27.2 °C 21.9 °C 1017.8 hPa ESE 19.3 km/h 19.3 km/h 73 % 0 mm
11:36 27.4 °C 22.1 °C 1017.8 hPa ESE 11.3 km/h 19.3 km/h 73 % 0 mm
11:41 27.6 °C 21.9 °C 1017.8 hPa South 11.3 km/h 19.3 km/h 71 % 0 mm
11:46 27.7 °C 22.4 °C 1017.8 hPa SSE 1.6 km/h 19.3 km/h 73 % 0 mm
11:51 27.8 °C 21.8 °C 1017.5 hPa SE 6.4 km/h 19.3 km/h 70 % 0 mm
11:56 27.9 °C 21.9 °C 1017.5 hPa SSE 12.9 km/h 16.1 km/h 70 % 0 mm
12:01 27.8 °C 22.1 °C 1017.5 hPa SSW 8 km/h 16.1 km/h 71 % 0 mm
12:06 27.9 °C 21.9 °C 1017.5 hPa SSW 8 km/h 16.1 km/h 70 % 0 mm
12:11 28.1 °C 22.1 °C 1017.5 hPa ESE 9.7 km/h 16.1 km/h 70 % 0 mm
12:16 27.9 °C 21.7 °C 1017.5 hPa South 8 km/h 19.3 km/h 69 % 0 mm
12:21 27.7 °C 21.5 °C 1017.2 hPa South 6.4 km/h 19.3 km/h 69 % 0 mm
12:26 27.7 °C 22.2 °C 1017.2 hPa SSW 4.8 km/h 19.3 km/h 72 % 0 mm
12:31 28 °C 21.8 °C 1017.2 hPa SSW 8 km/h 14.5 km/h 69 % 0 mm
12:36 27.9 °C 21.7 °C 1017.2 hPa SSE 3.2 km/h 12.9 km/h 69 % 0 mm
12:41 27.8 °C 21.6 °C 1017.2 hPa SE 4.8 km/h 12.9 km/h 69 % 0 mm
12:46 28 °C 22 °C 1017.2 hPa ESE 12.9 km/h 19.3 km/h 70 % 0 mm
12:51 28.1 °C 21.6 °C 1016.8 hPa South 8 km/h 19.3 km/h 68 % 0 mm
12:56 28.5 °C 22.3 °C 1016.8 hPa SW 12.9 km/h 19.3 km/h 69 % 0 mm
12:57 28.5 °C 22.3 °C 1016.8 hPa SSE 8 km/h 19.3 km/h 69 % 0 mm
13:02 28.7 °C 22 °C 1016.8 hPa SE 8 km/h 16.1 km/h 67 % 0 mm
13:07 28.7 °C 21.7 °C 1016.8 hPa South 12.9 km/h 12.9 km/h 66 % 0 mm
13:12 28.6 °C 21.6 °C 1016.8 hPa SSE 6.4 km/h 17.7 km/h 66 % 0 mm
13:17 28.8 °C 22.3 °C 1016.5 hPa SSE 9.7 km/h 17.7 km/h 68 % 0 mm
13:22 29.2 °C 22.4 °C 1016.5 hPa South 14.5 km/h 17.7 km/h 67 % 0 mm
13:27 29.3 °C 22.3 °C 1016.5 hPa SE 9.7 km/h 19.3 km/h 66 % 0 mm
13:32 29.3 °C 22 °C 1016.5 hPa ESE 14.5 km/h 19.3 km/h 65 % 0 mm
13:37 29.1 °C 21.8 °C 1016.5 hPa East 6.4 km/h 19.3 km/h 65 % 0 mm
13:42 28.9 °C 21.7 °C 1016.5 hPa SSW 11.3 km/h 19.3 km/h 65 % 0 mm
13:47 28.8 °C 21.8 °C 1016.5 hPa SE 17.7 km/h 20.9 km/h 66 % 0 mm
13:52 28.4 °C 21.4 °C 1016.5 hPa ESE 14.5 km/h 20.9 km/h 66 % 0 mm
13:57 28.8 °C 21.8 °C 1016.5 hPa SE 16.1 km/h 22.5 km/h 66 % 0 mm
14:02 28.7 °C 22 °C 1016.5 hPa East 14.5 km/h 29 km/h 67 % 0 mm
14:07 28.9 °C 22.2 °C 1016.5 hPa SE 8 km/h 29 km/h 67 % 0 mm
14:12 29 °C 21.8 °C 1016.5 hPa SE 19.3 km/h 29 km/h 65 % 0 mm
14:17 28.9 °C 21.7 °C 1016.1 hPa ESE 12.9 km/h 24.1 km/h 65 % 0 mm
14:22 28.7 °C 21.7 °C 1016.5 hPa SSE 4.8 km/h 24.1 km/h 66 % 0 mm
14:27 28.4 °C 21.4 °C 1016.5 hPa ESE 11.3 km/h 24.1 km/h 66 % 0 mm
14:32 28.2 °C 21.5 °C 1016.1 hPa SE 9.7 km/h 25.7 km/h 67 % 0 mm
14:37 27.9 °C 21.2 °C 1016.1 hPa SSE 4.8 km/h 25.7 km/h 67 % 0 mm
14:42 27.9 °C 21.7 °C 1016.1 hPa SSW 8 km/h 25.7 km/h 69 % 0 mm
14:47 27.8 °C 21.3 °C 1016.1 hPa SSW 12.9 km/h 19.3 km/h 68 % 0 mm
14:52 27.7 °C 21.3 °C 1016.1 hPa East 11.3 km/h 17.7 km/h 68 % 0 mm
14:57 27.6 °C 21.2 °C 1016.1 hPa SSW 3.2 km/h 19.3 km/h 68 % 0 mm
15:02 27.6 °C 21.6 °C 1016.1 hPa SE 6.4 km/h 19.3 km/h 70 % 0 mm
15:07 27.4 °C 21.4 °C 1016.1 hPa ESE 14.5 km/h 19.3 km/h 70 % 0 mm
15:12 27.4 °C 21.4 °C 1016.1 hPa ESE 4.8 km/h 17.7 km/h 70 % 0 mm
15:17 27.4 °C 21.7 °C 1016.1 hPa East 6.4 km/h 16.1 km/h 71 % 0 mm
15:22 27.5 °C 21.3 °C 1015.8 hPa SE 6.4 km/h 17.7 km/h 69 % 0 mm
15:27 27.7 °C 21 °C 1015.8 hPa East 12.9 km/h 17.7 km/h 67 % 0 mm
15:32 27.8 °C 21.1 °C 1015.8 hPa SE 4.8 km/h 22.5 km/h 67 % 0 mm
15:33 27.8 °C 21.1 °C 1015.8 hPa SE 17.7 km/h 22.5 km/h 67 % 0 mm
15:38 27.8 °C 20.9 °C 1015.8 hPa SE 8 km/h 25.7 km/h 66 % 0 mm
15:43 27.9 °C 21 °C 1015.8 hPa South 16.1 km/h 25.7 km/h 66 % 0 mm
15:48 27.9 °C 21 °C 1015.8 hPa SW 8 km/h 25.7 km/h 66 % 0 mm
15:53 27.9 °C 20.7 °C 1015.8 hPa SE 11.3 km/h 25.7 km/h 65 % 0 mm
15:58 27.9 °C 20.7 °C 1015.5 hPa SSE 6.4 km/h 25.7 km/h 65 % 0 mm
16:03 27.9 °C 20.7 °C 1015.5 hPa SSE 9.7 km/h 22.5 km/h 65 % 0 mm
16:08 28.3 °C 20.6 °C 1015.5 hPa SSE 8 km/h 22.5 km/h 63 % 0 mm
16:13 28.3 °C 20.8 °C 1015.5 hPa ESE 3.2 km/h 22.5 km/h 64 % 0 mm
16:18 28.2 °C 20.7 °C 1015.8 hPa ESE 6.4 km/h 22.5 km/h 64 % 0 mm
16:23 27.9 °C 20.5 °C 1015.8 hPa SE 12.9 km/h 19.3 km/h 64 % 0 mm
16:28 27.8 °C 20.6 °C 1015.5 hPa SSE 4.8 km/h 19.3 km/h 65 % 0 mm
16:29 27.8 °C 20.6 °C 1015.5 hPa East 9.7 km/h 19.3 km/h 65 % 0 mm
16:34 27.7 °C 20.5 °C 1015.8 hPa East 19.3 km/h 19.3 km/h 65 % 0 mm
16:39 27.8 °C 20.4 °C 1015.5 hPa SSE 8 km/h 22.5 km/h 64 % 0 mm
16:44 27.8 °C 20.4 °C 1015.5 hPa SE 6.4 km/h 22.5 km/h 64 % 0 mm
16:49 27.8 °C 20.4 °C 1015.5 hPa East 8 km/h 22.5 km/h 64 % 0 mm
16:54 27.8 °C 20.6 °C 1015.5 hPa SE 6.4 km/h 16.1 km/h 65 % 0 mm
16:59 27.8 °C 20.6 °C 1015.5 hPa ESE 16.1 km/h 19.3 km/h 65 % 0 mm
17:04 27.8 °C 20.6 °C 1015.5 hPa SE 9.7 km/h 19.3 km/h 65 % 0 mm
17:09 27.7 °C 20.8 °C 1015.5 hPa SSE 8 km/h 19.3 km/h 66 % 0 mm
17:14 27.6 °C 20.7 °C 1015.5 hPa ESE 8 km/h 17.7 km/h 66 % 0 mm
17:19 27.6 °C 20.7 °C 1015.5 hPa SSE 8 km/h 17.7 km/h 66 % 0 mm
17:24 27.4 °C 20.7 °C 1015.1 hPa SSE 6.4 km/h 12.9 km/h 67 % 0 mm
17:29 27.4 °C 21 °C 1015.1 hPa SSE 11.3 km/h 14.5 km/h 68 % 0 mm
17:34 27.4 °C 21 °C 1014.8 hPa SSE 9.7 km/h 14.5 km/h 68 % 0 mm
17:39 27.3 °C 20.6 °C 1014.8 hPa SE 16.1 km/h 16.1 km/h 67 % 0 mm
17:44 27.3 °C 20.9 °C 1014.8 hPa South 22.5 km/h 24.1 km/h 68 % 0 mm
17:49 27.4 °C 20.7 °C 1014.8 hPa SE 14.5 km/h 24.1 km/h 67 % 0 mm
17:54 27.6 °C 20.9 °C 1014.8 hPa SSE 19.3 km/h 24.1 km/h 67 % 0 mm
17:59 27.6 °C 20.4 °C 1014.8 hPa SE 14.5 km/h 22.5 km/h 65 % 0 mm
18:04 27.6 °C 20.7 °C 1014.8 hPa SSE 11.3 km/h 24.1 km/h 66 % 0 mm
18:09 27.4 °C 20.5 °C 1015.1 hPa SSE 8 km/h 24.1 km/h 66 % 0 mm
18:14 27.3 °C 20.4 °C 1015.5 hPa SE 8 km/h 24.1 km/h 66 % 0 mm
18:19 27.2 °C 20.3 °C 1015.5 hPa SSW 8 km/h 22.5 km/h 66 % 0 mm
18:24 27.2 °C 20.5 °C 1015.5 hPa SE 11.3 km/h 22.5 km/h 67 % 0 mm
18:29 27.2 °C 20.5 °C 1015.5 hPa SE 9.7 km/h 22.5 km/h 67 % 0 mm
18:34 27.1 °C 20.4 °C 1015.5 hPa East 4.8 km/h 22.5 km/h 67 % 0 mm
18:39 27.1 °C 20.4 °C 1015.5 hPa SSE 11.3 km/h 22.5 km/h 67 % 0 mm
18:44 26.9 °C 20.3 °C 1015.5 hPa SE 6.4 km/h 20.9 km/h 67 % 0 mm
18:49 26.8 °C 20.4 °C 1015.8 hPa SSE 8 km/h 14.5 km/h 68 % 0 mm
18:54 26.7 °C 20.3 °C 1015.8 hPa ESE 11.3 km/h 16.1 km/h 68 % 0 mm
18:59 26.6 °C 20.4 °C 1015.8 hPa SE 6.4 km/h 16.1 km/h 69 % 0 mm
19:04 26.6 °C 20.7 °C 1015.8 hPa ESE 14.5 km/h 16.1 km/h 70 % 0 mm
19:09 26.5 °C 20.6 °C 1015.8 hPa ESE 11.3 km/h 17.7 km/h 70 % 0 mm
19:14 26.4 °C 20.5 °C 1015.8 hPa South 6.4 km/h 17.7 km/h 70 % 0 mm
19:19 26.3 °C 20.4 °C 1016.1 hPa SSE 11.3 km/h 17.7 km/h 70 % 0 mm
19:24 26.1 °C 20.2 °C 1016.1 hPa SE 8 km/h 17.7 km/h 70 % 0 mm
19:29 26.1 °C 20.4 °C 1016.1 hPa South 9.7 km/h 17.7 km/h 71 % 0 mm
19:34 26 °C 20.3 °C 1016.1 hPa SSE 6.4 km/h 17.7 km/h 71 % 0 mm
19:39 25.9 °C 20.5 °C 1015.8 hPa ESE 4.8 km/h 19.3 km/h 72 % 0 mm
19:44 25.8 °C 20.4 °C 1016.1 hPa SSE 9.7 km/h 19.3 km/h 72 % 0 mm
19:50 25.6 °C 20.2 °C 1016.1 hPa East 6.4 km/h 19.3 km/h 72 % 0 mm
19:55 25.5 °C 20.3 °C 1015.8 hPa SSE 6.4 km/h 17.7 km/h 73 % 0 mm
20:00 25.4 °C 20.2 °C 1015.8 hPa SE 9.7 km/h 14.5 km/h 73 % 0 mm
20:05 25.3 °C 20.1 °C 1015.8 hPa SE 6.4 km/h 14.5 km/h 73 % 0 mm
20:10 25.2 °C 20 °C 1016.1 hPa SSW 6.4 km/h 17.7 km/h 73 % 0 mm
20:15 25.1 °C 19.9 °C 1016.1 hPa ESE 11.3 km/h 17.7 km/h 73 % 0 mm
20:20 25 °C 20 °C 1016.1 hPa SSE 8 km/h 17.7 km/h 74 % 0 mm
20:25 24.9 °C 19.9 °C 1016.1 hPa South 9.7 km/h 14.5 km/h 74 % 0 mm
20:30 24.9 °C 19.9 °C 1016.1 hPa SE 9.7 km/h 14.5 km/h 74 % 0 mm
20:35 24.8 °C 19.8 °C 1016.1 hPa SSE 8 km/h 16.1 km/h 74 % 0 mm
20:40 24.6 °C 19.9 °C 1016.1 hPa ESE 6.4 km/h 16.1 km/h 75 % 0 mm
20:45 24.5 °C 19.8 °C 1015.8 hPa SSE 11.3 km/h 16.1 km/h 75 % 0 mm
20:50 24.4 °C 19.9 °C 1016.1 hPa South 6.4 km/h 16.1 km/h 76 % 0 mm
20:55 24.3 °C 19.8 °C 1016.1 hPa ESE 4.8 km/h 12.9 km/h 76 % 0 mm
21:00 24.2 °C 19.7 °C 1015.8 hPa SE 6.4 km/h 11.3 km/h 76 % 0 mm
21:05 24.2 °C 19.9 °C 1015.8 hPa South 3.2 km/h 11.3 km/h 77 % 0 mm
21:10 24.1 °C 19.8 °C 1015.8 hPa ESE 6.4 km/h 11.3 km/h 77 % 0 mm
21:15 24.1 °C 20 °C 1015.8 hPa South 6.4 km/h 12.9 km/h 78 % 0 mm
21:20 24.1 °C 20 °C 1016.1 hPa ESE 4.8 km/h 12.9 km/h 78 % 0 mm
21:25 24 °C 20.1 °C 1016.1 hPa SSE 6.4 km/h 12.9 km/h 79 % 0 mm
21:30 23.9 °C 20 °C 1016.5 hPa South 4.8 km/h 11.3 km/h 79 % 0 mm
21:35 23.8 °C 20.1 °C 1016.5 hPa South 3.2 km/h 11.3 km/h 80 % 0 mm
21:40 23.7 °C 20 °C 1016.5 hPa SSE 1.6 km/h 11.3 km/h 80 % 0 mm
21:45 23.6 °C 20.1 °C 1016.5 hPa South 3.2 km/h 11.3 km/h 81 % 0 mm
21:50 23.4 °C 20.1 °C 1016.8 hPa South 4.8 km/h 8 km/h 82 % 0 mm
21:55 23.3 °C 20.1 °C 1016.8 hPa SSE 3.2 km/h 9.7 km/h 82 % 0 mm
22:00 23.2 °C 20.2 °C 1016.8 hPa SSW 1.6 km/h 9.7 km/h 83 % 0 mm
22:05 23.2 °C 20.2 °C 1016.8 hPa South 3.2 km/h 9.7 km/h 83 % 0 mm
22:10 23.1 °C 20.2 °C 1016.8 hPa SE 3.2 km/h 6.4 km/h 84 % 0 mm
22:15 23 °C 20.1 °C 1016.8 hPa SSE 3.2 km/h 9.7 km/h 84 % 0 mm
22:21 23 °C 20.3 °C 1016.5 hPa ESE 3.2 km/h 9.7 km/h 85 % 0 mm
22:26 23 °C 20.3 °C 1016.8 hPa SSE 4.8 km/h 9.7 km/h 85 % 0 mm
22:31 23 °C 20.3 °C 1016.8 hPa SSE 8 km/h 8 km/h 85 % 0 mm
22:36 23 °C 20.5 °C 1016.5 hPa SE 1.6 km/h 14.5 km/h 86 % 0 mm
22:41 22.9 °C 20.4 °C 1016.5 hPa ESE 4.8 km/h 14.5 km/h 86 % 0 mm
22:46 22.9 °C 20.4 °C 1016.5 hPa SE 4.8 km/h 14.5 km/h 86 % 0 mm
22:51 22.8 °C 20.5 °C 1016.5 hPa SSE 4.8 km/h 9.7 km/h 87 % 0 mm
22:56 22.7 °C 20.4 °C 1016.5 hPa East 3.2 km/h 8 km/h 87 % 0 mm
23:01 22.6 °C 20.5 °C 1016.5 hPa ESE 3.2 km/h 8 km/h 88 % 0 mm
23:06 22.6 °C 20.5 °C 1016.1 hPa ESE 1.6 km/h 8 km/h 88 % 0 mm
23:11 22.5 °C 20.4 °C 1016.5 hPa Calm   4.8 km/h 88 % 0 mm
23:16 22.4 °C 20.3 °C 1016.5 hPa Calm   4.8 km/h 88 % 0 mm
23:21 22.3 °C 20.4 °C 1016.5 hPa Calm   3.2 km/h 89 % 0 mm
23:26 22.2 °C 20.5 °C 1016.1 hPa ESE 1.6 km/h 4.8 km/h 90 % 0 mm
23:31 22.2 °C 20.5 °C 1016.5 hPa Calm   4.8 km/h 90 % 0 mm
23:36 22.1 °C 20.4 °C 1016.1 hPa Calm   4.8 km/h 90 % 0 mm
23:41 22 °C 20.3 °C 1016.1 hPa SE 1.6 km/h 3.2 km/h 90 % 0 mm
23:46 21.9 °C 20.4 °C 1016.5 hPa Calm   1.6 km/h 91 % 0 mm
23:51 21.8 °C 20.3 °C 1016.5 hPa Calm   1.6 km/h 91 % 0 mm
23:56 21.7 °C 20.2 °C 1016.1 hPa SE 1.6 km/h 1.6 km/h 91 % 0 mm
Spring, Texas: Villages of Bridgestone
Compliments of Weather Underground - 2.75 mb

Script developed by  Jim McMurry - jmcmurry@mwt.net Adapted for the template by  Wim van der Kuil - Leuven-Template.eu

You find our weather info also at:

UK Metoffice

WeatherCloud

Weather Underground

Mid-South Weather Network

AWEKAS

Citizen Weather Observer Program (CWOP)

HAMweather, WeatherForYou, PWS Weather

Equipment we use:

Weather-station
Davis Vantage Vue

Weather-program
Meteohub

Weather-server
Debian 7.9 x86 (Guest)

Provider
DreamHost

Davis Vantage Vue

Meteohub

Debian 7.9 x86 (Guest)

DreamHost